Showing default

SECOR 1B, 729

Orbit data source: Space-Track

SECOR 1B, 729 is an American payload satellite in LEO that was launched on Sat, 11 Jan 1964 UTC via a THOR SLV-2A AGENA D launch vehicle from the Air Force Western Test Range (AFWTR). Payload-class satellites include a variety of spacecraft equipped with specific instruments for various scientific and technological missions. These include communications satellites like Starlink; space stations such as the ISS; scientific satellites like the Hubble; Earth observation satellites from companies like Planet Labs, Umbra, and HawkEye 360; GPS; miniature CubeSats for education and research; and military/defense satellites.

Loading next visibility...
Identifier
729, 1964-001C
Orbit
LEO
Last TLE update
10 hours ago
Origin
Manufacturer
ITT
Mission
Defense Geodetic
Bus & Motor
SECOR, Unknown motor
Mass
18 kg wet, 18 kg dry
Launch date (UTC)
1964-01-11 (61 years ago)
Launch vehicle
THOR SLV-2A AGENA D
Launch site
Air Force Western Test Range (AFWTR)
Object type
Payload
Rocket body
Debris
Shape & HBR
Box, 0.36 m
Radar Cross Section
0.104 m², Medium (>0.1 m² and < 1m²)

Expand to show TLE details & history

TLE from 10 hours ago
0 SECOR 1B
1 00729U 64001C   25183.82203796  .00000010  00000-0  46808-4 0  9996
2 00729  69.9020 322.2451 0013550 176.1890 183.9321 13.95176406127976
Epoch: 2025-07-02T19:43Z
TLE epoch observation values (Epoch: 2025-07-02T19:43:44.079Z)
Latitude
0.00003°
Longitude
105.21382°
Altitude
922.706 km
Speed
7.386 km/s
True Right ascension
21h 28m 58s
True Declination
0° 00' 00"
Sunlit
Object was in full shadow at epoch
Visualization orbit readout
Latitude
-53.37911°
Longitude
-46.33253°
Altitude
926.122 km
Speed
7.39 km/s
Apparent Right ascension
08h 04m 34s
Apparent Declination
-57° 00' 56"
Sunlit
Object is in daylight
Visualization observer readout
Local Sidereal Time
17:13:45
Azimuth
223.679° SW
Elevation
-57.682°
Doppler factor
1
Orbital elements
Apogee altitude
918.474 km
Perigee altitude
898.727 km
Semi-major axis
7,286.737 km
Eccentricity
0.00136
Inclination
69.902°
RAAN
322.2451°
Arg. of periapsis
176.189°
True anomaly
Unknown
Mean anomaly
183.9321°
Eccentric anomaly
Unknown
Mean motion
3.48934 °/min
Orbital period
103.17 mins
BSTAR
0.000046808
Loading maneuver chart data...
Loading SW <> Apogee altitude chart data...
Loading historical data...
Loading historical data...
Loading historical data...
Loading historical data...
Loading historical data...
Loading historical data...
Loading historical data...
Other satellites on launch #1 in the year 1964 (1964-01-11 UTC)

SECOR 1B Visibility forecast

Observer location: undefined°, undefined°

Span
Click to sort rows by Start time (UTC) header in descending order
Start Az.
Max El. time (UTC)
Max El. Az.
Max El.
End time (UTC)
End Az.
9 mins2025-07-03 09:36:14.559Z155.493° SSE2025-07-03 09:41:14.559Z96.245° ESE23.592°2025-07-03 09:45:14.559Z51.559° ENE
9 mins2025-07-03 11:22:14.559Z234.525° WSW2025-07-03 11:26:14.559Z301.534° NW36.245°2025-07-03 11:31:14.559Z11.242° NNE
6 mins2025-07-03 18:39:14.559Z15.458° NNE2025-07-03 18:42:14.559Z49.951° ENE17.136°2025-07-03 18:45:14.559Z83.463° E
10 mins2025-07-03 20:24:14.559Z331.814° NNW2025-07-03 20:28:14.559Z281.678° WNW44.322°2025-07-03 20:34:14.559Z161.94° S
|